L01 Visnjan Observatory, Tican. Observer K. Korlevic. 1.0-m f/2.9 reflector
+ CCD.
L04 ROASTERR-1 Observatory, Cluj-Napoca. Observer L. Hudin. 0.3-m f/5
reflector + CCD.
L47 Osservatorio Astronomico, Piobbico. Observers A. Teseo, A. Annamelia.
Measurer A. Teseo. 0.2-m f/7.2 Schmidt-Cassegrain + CCD.
L54 Berthelot Observatory, Hunedoara. Observers A. Sonka, A. Nedelcu.
Measurer A. Sonka. 0.50-m f/8 RC + CCD.
M45 Starhopper Observatory, Sfantu Gheorghe. Observer F. Ursache. 0.41-m
f/7.5 reflector + CMO.
M50 Virtual Telescope Project, Manciano. Observer G. Masi. 0.36-m f/6.9
Schmidt-Cassegrain + CCD.
O75 ISON-Hureltogoot Observatory. Observer L. Elenin. 0.40-m f/2.4 reflector
+ CCD.
T05 ATLAS-HKO, Haleakala. Observers L. Denneau, R. Siverd, J. Tonry, H.
Weiland. Measurers L. Denneau, N. Erasmus, A. Fitzsimmons, A. Lawrence,
J. Robinson, R. Siverd, J. Tonry, H. Weiland. 0.5-m Reflector + CCD.
Orbital elements:
2024 BC3 Earth MOID = 0.0461 AU
Epoch 2023 Sept. 13.0 TT = JDT 2460200.5 Veres
M 305.17140 (2000.0) P Q
n 1.10715555 Peri. 50.98965 +0.90339724 -0.05557382
a 0.9254017 Node 307.72236 -0.25514775 +0.72726564
e 0.3078059 Incl. 32.51652 +0.34463466 +0.68410250
P 0.89 H 22.31 G 0.15 U 7
Residuals in seconds of arc
240124 F51 0.3+ 0.2+ 240129 K74 0.1- 0.0 240129 595 0.1- 0.0
240124 F51 (1.8+ 0.6+) 240129 K74 0.1- 0.2- 240129 L47 0.5+ 0.9-
240124 F51 0.5+ 0.2+ 240129 K74 0.0 0.0 240129 L47 0.4+ 2.3+
240124 F51 0.7- 0.2- 240129 K63 0.5- 0.1- 240129 L47 2.7- 0.0
240124 F52 (2.1- 0.7-) 240129 K74 0.2- 0.1+ 240129 L54 1.2- 0.5-
240124 F52 0.1- 0.1- 240129 K63 0.1+ 0.4- 240129 L47 1.0- 0.2-
240124 F52 0.2+ 0.0 240129 K63 0.1- 0.0 240129 L54 0.8+ 0.9+
240129 T05 0.2+ 0.2+ 240129 L47 0.6- 0.7- 240129 L54 0.2- 0.1+
240129 T05 0.1- 0.1- 240129 K63 0.1+ 0.1+ 240129 L54 1.4- 1.5-
240129 T05 0.1- 0.2- 240129 204 0.1+ 0.0 240129 L54 0.8- 2.1-
240129 900 0.1- 0.0 240129 203 0.1+ 0.0 240129 L54 1.3+ 1.3+
240129 900 0.1- 0.2+ 240129 K63 0.3- 0.3- 240129 130 0.1+ 0.1+
240129 900 0.1- 0.0 240129 204 0.1- 0.1+ 240129 130 0.1- 0.1-
240129 C97 0.3+ 1.0+ 240129 203 0.1- 0.3- 240129 C43 0.1- 0.1+
240129 C97 0.0 0.1+ 240129 L47 0.4+ 0.4+ 240129 130 0.0 0.2+
240129 C97 0.7+ 0.4+ 240129 K63 0.2- 0.0 240129 130 0.2+ 0.1-
240129 L04 0.1+ 0.1+ 240129 203 0.0 0.1- 240129 C43 1.6+ 0.2-
240129 L04 0.2- 0.2+ 240129 O75 0.3- 0.1+ 240129 L01 0.2- 0.1-
240129 G02 0.8- 0.4- 240129 L47 0.8+ 1.3+ 240129 C43 1.0+ 0.4-
240129 L04 0.2+ 0.2+ 240129 O75 0.4+ 0.3+ 240129 L01 0.3- 0.1+
240129 G02 0.4- 0.1+ 240129 204 0.0 0.1+ 240129 L01 0.3- 0.1+
240129 G02 0.1+ 0.1+ 240129 O75 0.1+ 0.4- 240129 C43 0.2- 0.9+
240129 M50 0.3- 0.0 240129 L47 0.6+ 0.2+ 240129 L01 0.2- 0.1+
240129 595 0.3- 0.2+ 240129 204 0.1+ 0.1- 240129 C43 0.1+ 0.4+
240129 595 0.5- 0.2+ 240129 G00 0.1- 0.0 240129 L01 0.4- 0.1+
240129 595 0.2- 0.2+ 240129 G00 0.1- 0.1+ 240129 L01 0.4- 0.2+
240129 M45 0.0 0.1+ 240129 G00 0.2+ 0.1+ 240129 104 0.2- 0.2+
240129 L47 0.1+ 0.9+ 240129 G00 0.4+ 0.2+ 240129 104 0.2- 0.1-
240129 M45 0.2- 0.2- 240129 G00 0.2- 0.0 240129 104 0.3- 0.1+
240129 M45 0.2- 0.0 240129 G00 0.0 0.1+ 240129 958 0.7+ 0.5+
240129 L47 2.6+ 1.2- 240129 106 0.1- 0.0 240129 958 0.1+ 0.8-
240129 L47 1.2+ 0.3+ 240129 106 0.1- 0.0 240129 958 0.0 1.2+
240129 K74 0.1- 0.1+ 240129 595 0.0 0.0 240129 958 0.7+ 0.8-
240129 K74 0.3- 0.0 240129 106 0.0 0.1+ 240129 958 0.8- 0.0
240129 K74 0.3- 0.1+ 240129 595 0.1+ 0.0 240129 958 0.4+ 0.7-
240129 K74 0.2- 0.1+ 240129 106 0.1- 0.0
Ephemeris:
2024 BC3 a,e,i = 0.93, 0.31, 33 q = 0.6406
Date TT R. A. (2000) Decl. Delta r Elong. Phase V
2023 12 31 16 55 31.8 +34 28 17 0.2656 0.8925 62.5 102.2 22.9
...
2024 01 15 15 55 43.7 +41 31 24 0.1258 0.9741 82.0 90.7 21.0
...
2024 01 23 12 56 29.0 +46 48 29 0.06022 1.0138 118.0 59.0 18.4
...
2024 01 29 08 29 49.9 +14 16 16 0.05691 1.0415 175.0 4.7 16.6
2024 01 30 08 06 27.5 +08 19 13 0.06270 1.0460 166.3 12.9 17.2
2024 01 31 07 47 56.1 +03 24 08 0.06959 1.0504 159.0 19.6 17.6
...
2024 02 06 06 50 28.6 -11 51 53 0.1223 1.0755 134.7 40.7 19.5
...
2024 02 14 06 25 47.0 -18 04 32 0.2020 1.1058 121.3 49.7 20.9
...
2024 02 29 06 17 39.8 -21 01 38 0.3542 1.1525 108.4 54.6 22.4
M. P. C. Staff (C) Copyright 2024 MPC M.P.E.C. 2024-B153
More information about the Iaude
mailing list